Theta_e
295 295 295 295 296 295 296 296 299 300 302 301 299 301 302 302 303 306 306 308 313 314 317 316 312 313 313 314 313 314 313 314 314 314 315 315 316 318 318 319 319 317 317 318
295 294 295 296 296 295 296 297 298 299 300 303 303 302 303 301 302 304 307 308 311 315 317 318 316 314 315 315 312 312 312 312 313 313 314 315 318 317 316 315 315 318 320 318
295 295 295 296 296 295 296 298 299 299 299 300 302 303 303 302 302 302 303 308 310 312 315 315 315 317 318 316 312 314 314 312 315 315 314 314 316 317 316 316 316 317 317 317
295 296 297 297 296 295 296 298 298 300 302 301 302 303 303 302 303 302 304 305 308 312 314 315 315 315 316 316 315 313 313 313 313 313 313 314 315 316 316 316 316 318 318 315
295 296 297 296 296 295 297 298 299 300 302 303 304 303 307 304 301 305 302 304 308 308 309 313 314 314 317 317 315 315 311 314 315 314 313 313 316 314 315 315 314 315 313 314
295 296 297 295 295 296 298 297 298 299 302 304 306 305 304 307 304 305 304 305 305 306 308 310 311 311 313 315 315 314 313 313 313 315 314 314 316 313 314 314 314 314 315 314
295 297 297 294 295 297 297 297 298 299 301 303 305 307 307 306 308 307 308 305 309 310 309 309 313 312 313 316 315 313 313 311 310 313 313 313 315 314 313 315 318 316 316 316
296 296 297 294 295 296 297 298 297 299 302 303 303 304 307 307 306 308 310 312 309 310 312 312 312 311 312 313 311 315 312 312 312 315 313 314 317 316 316 315 318 317 315 313
296 296 297 295 294 295 297 298 298 299 301 302 303 305 305 306 307 307 309 310 311 310 309 310 313 315 315 313 312 311 311 313 315 313 315 316 313 315 314 313 316 314 314 312
295 296 297 296 295 294 297 298 299 299 299 301 304 305 306 307 307 308 309 309 309 309 307 311 311 313 312 313 314 313 312 310 316 313 317 314 311 314 314 315 314 314 314 314
295 296 297 296 295 295 297 298 300 299 300 302 303 303 304 304 305 309 309 310 308 307 309 313 308 310 311 311 312 313 314 314 311 310 314 318 313 316 312 310 313 314 314 314
293 295 296 297 296 295 297 298 299 300 299 301 302 302 302 301 300 302 305 311 307 307 310 308 308 306 308 309 311 309 313 312 314 313 314 310 309 314 313 314 315 314 313 311
292 294 296 297 297 297 298 299 299 299 299 301 301 302 302 300 300 301 302 306 309 307 307 304 306 307 305 308 309 309 308 308 313 313 308 303 305 311 314 314 314 312 311 309
292 294 296 297 298 298 299 298 299 299 300 301 300 300 302 301 303 305 306 304 304 310 306 304 305 303 304 306 307 308 306 308 307 305 303 303 303 305 307 307 308 307 305 304
292 294 296 297 298 299 299 299 299 299 300 298 298 299 299 301 303 304 306 305 304 305 305 302 303 300 301 300 304 305 303 307 310 309 307 304 301 301 302 302 302 302 303 302
291 294 296 297 297 298 298 298 299 299 299 298 297 298 299 299 299 301 300 304 304 302 301 300 300 300 300 302 303 301 302 305 309 304 306 303 302 301 301 302 301 301 302 302
291 293 296 296 296 298 298 299 299 300 299 298 296 296 298 299 298 299 299 299 299 300 299 299 299 299 299 300 301 300 301 301 301 301 301 302 302 302 302 302 302 302 301 301
292 294 296 296 297 297 298 298 299 300 300 298 296 296 298 298 298 299 299 298 298 298 298 298 298 298 298 300 298 299 299 299 300 300 301 301 301 302 301 300 299 299 299 299
294 295 296 296 298 298 298 298 300 300 299 296 295 296 297 299 298 299 298 297 298 297 296 297 297 297 298 297 298 299 299 300 301 300 300 300 301 300 299 299 299 298 298 297
295 296 297 296 298 298 298 299 299 299 298 299 293 295 296 298 297 297 297 297 296 298 296 297 297 298 298 300 300 299 299 299 301 301 300 299 299 299 299 299 298 297 296 295
295 297 297 297 298 298 298 297 298 297 294 298 297 297 297 299 295 296 297 296 296 297 297 299 297 298 298 301 299 299 300 300 300 300 300 300 300 300 299 297 296 295 295 295
297 297 297 297 297 296 294 292 293 293 294 296 296 298 299 299 299 295 294 295 295 298 293 294 299 298 299 298 298 298 299 299 300 300 300 300 300 299 298 296 295 295 294 294
297 298 297 297 294 291 293 289 295 294 295 296 297 295 297 297 297 294 294 291 293 293 287 293 294 296 298 298 298 298 298 300 300 300 299 298 297 296 295 295 295 295 295 294
296 296 295 295 293 294 293 294 295 296 297 298 297 294 294 295 295 295 295 294 293 293 290 293 289 296 298 298 298 299 298 298 298 299 299 299 299 299 297 296 296 296 296 295
296 295 294 294 294 294 294 295 297 297 298 298 296 295 295 292 293 294 295 293 295 295 293 291 296 298 298 298 299 299 299 299 298 298 298 298 299 299 298 297 297 297 297 297
297 297 296 294 294 293 294 296 296 297 298 297 296 293 295 295 294 293 294 295 293 293 291 295 297 298 297 297 298 298 298 298 297 297 298 298 299 299 299 299 299 298 298 297
297 296 297 296 295 294 296 296 298 298 298 293 292 292 295 292 293 295 291 291 292 294 295 296 298 297 297 298 299 298 296 294 294 295 297 297 296 296 296 297 299 299 299 298
Wind_Speed
25 26 27 26 25 22 20 20 6 15 18 12 6 7 13 22 12 28 6 4 5 8 6 6 8 12 10 14 14 15 8 6 6 7 2 5 7 9 8 5 4 2 4 7
26 28 26 26 23 19 18 10 18 21 16 6 7 7 17 15 9 17 5 7 6 4 8 3 6 6 3 9 9 11 8 5 2 6 5 2 4 5 4 6 4 8 6 6
29 29 29 27 24 21 18 9 4 12 25 18 7 14 14 16 18 22 19 7 4 4 4 3 5 4 2 5 9 13 18 5 18 13 6 7 6 6 5 7 5 5 6 5
30 30 29 27 24 21 19 13 6 8 3 10 16 12 6 20 7 25 12 6 6 3 3 1 4 3 1 3 9 4 7 9 5 10 9 6 7 9 10 8 6 8 8 9
29 28 26 24 23 21 24 9 5 7 7 12 11 20 8 22 22 7 28 17 7 6 6 4 2 3 1 4 2 4 2 4 4 7 5 9 7 12 12 6 4 3 7 5
30 27 25 23 22 21 16 21 24 16 5 6 7 12 23 12 17 15 32 12 17 18 13 14 15 11 8 5 4 5 5 6 4 5 5 7 5 9 10 6 5 8 6 7
27 26 23 22 21 25 25 20 14 10 8 5 5 8 13 22 17 15 12 29 12 12 22 21 6 2 3 4 4 3 6 5 3 4 5 4 7 0 6 7 3 3 6 6
27 28 21 21 22 22 24 27 24 8 4 7 8 13 6 10 20 15 14 8 21 16 13 3 3 2 2 2 4 2 1 5 3 5 4 4 0 3 7 8 6 4 8 8
26 27 18 20 21 21 25 30 31 18 5 8 18 10 7 6 7 6 22 34 16 8 4 4 6 5 6 5 3 2 5 4 4 3 5 8 7 2 2 4 2 8 9 9
26 23 13 18 20 21 23 30 31 22 7 10 8 4 4 6 7 4 5 21 10 12 4 4 4 5 8 6 9 6 3 3 6 2 3 5 4 1 1 7 8 15 14 13
24 20 16 17 20 21 24 26 29 26 7 13 6 8 8 8 11 6 3 10 5 2 5 6 4 4 6 5 4 5 6 6 3 3 4 6 4 1 6 3 14 24 18 16
24 20 19 17 18 19 22 25 26 26 14 6 7 6 4 3 4 8 6 5 5 5 3 1 3 2 3 7 5 3 2 3 5 2 1 4 5 2 5 18 26 21 20 17
23 22 16 17 18 19 22 29 26 21 6 8 8 8 7 1 10 8 4 5 3 5 4 3 2 4 3 4 3 5 3 3 4 3 4 5 10 11 17 21 18 16 19 19
20 17 14 15 15 18 18 27 23 23 4 3 3 6 5 4 6 3 7 4 1 9 9 3 3 2 1 2 4 3 1 5 5 4 3 13 15 19 22 23 22 22 20 16
18 15 11 13 13 8 19 28 21 18 4 3 3 1 2 4 8 4 6 8 7 11 4 3 2 2 2 2 3 3 2 5 4 4 8 7 8 12 15 18 17 14 13 11
18 16 13 10 13 12 24 7 21 16 9 3 0 3 8 9 11 11 9 8 6 6 6 3 3 5 0 3 3 3 7 10 19 9 21 15 18 15 12 13 13 12 9 8
17 15 12 11 10 20 18 4 3 22 18 2 1 2 4 3 6 6 7 9 8 5 4 5 4 6 5 3 3 7 11 10 12 15 20 17 17 10 13 12 11 8 5 3
17 11 8 11 11 20 18 3 25 20 12 4 2 1 3 1 4 6 10 8 7 10 4 3 3 4 4 4 1 5 6 7 7 7 7 8 12 16 13 10 7 4 1 2
11 8 16 11 14 6 6 14 22 21 5 3 2 4 3 6 2 2 4 4 3 4 3 2 1 2 4 1 4 7 7 8 6 6 8 12 17 16 13 9 5 4 5 5
8 10 6 5 11 18 20 11 8 7 5 4 2 4 2 4 2 2 1 3 1 2 2 2 3 2 3 5 1 1 4 2 8 14 13 14 14 13 11 9 8 8 8 6
15 10 3 17 24 8 4 3 4 3 0 4 4 5 4 4 3 2 3 1 1 3 2 2 2 0 1 6 10 10 9 6 9 11 9 9 10 14 15 15 13 10 7 6
16 11 20 13 5 3 3 1 0 2 4 5 6 8 5 5 4 4 2 2 1 3 1 3 2 2 5 4 6 7 5 6 7 1 8 10 13 14 15 13 11 10 9 8
20 8 4 5 2 2 6 5 2 1 6 9 10 4 5 4 4 5 3 4 1 1 4 2 3 5 7 4 6 7 7 3 2 1 3 6 8 10 12 12 12 11 11 10
4 4 4 3 3 4 4 5 4 5 10 23 19 6 4 4 3 1 4 1 2 3 2 3 3 10 8 6 4 5 6 5 4 6 9 13 15 16 15 15 14 14 15 13
3 2 3 4 3 3 2 5 10 11 31 25 13 7 5 3 4 2 3 3 1 3 4 3 9 12 7 4 1 2 3 6 8 11 13 13 14 18 19 19 20 20 21 21
3 2 3 2 2 1 4 5 12 27 29 15 7 4 3 2 3 3 2 5 5 3 3 10 15 11 5 3 2 3 6 10 13 14 15 16 17 21 25 27 30 31 31 30
2 2 2 3 0 5 6 14 17 32 20 3 4 4 2 3 3 2 2 4 3 6 10 15 13 7 2 2 5 7 11 14 14 14 14 17 20 23 25 27 29 30 31 32
Wind_Direction
297 299 294 290 289 288 283 271 252 253 229 189 197 212 220 233 247 253 275 323 263 218 194 194 188 197 202 198 156 193 186 148 210 198 259 182 165 175 158 154 212 203 170 252
294 298 294 290 287 270 271 252 258 265 242 224 213 234 233 236 262 235 236 231 237 274 203 209 190 181 167 174 160 167 166 200 117 331 348 325 178 181 140 115 99 188 178 253
292 293 290 287 276 262 255 246 254 230 203 234 227 243 242 224 220 251 275 285 236 267 241 228 184 167 157 139 188 186 167 147 200 214 208 150 184 170 173 147 145 174 218 221
294 291 286 281 268 253 243 223 236 238 213 219 216 236 257 219 223 215 236 254 239 204 238 209 176 200 261 116 149 108 156 198 173 208 179 169 173 176 175 189 178 170 210 197
299 291 285 277 258 244 241 237 211 255 268 223 211 233 210 230 217 224 228 232 283 231 216 192 114 53 208 212 153 137 146 214 139 184 198 183 192 205 188 191 127 105 132 231
302 290 279 272 252 235 239 236 247 262 262 250 221 230 223 231 217 225 237 229 235 259 242 246 272 269 254 253 198 164 149 138 122 211 154 122 272 190 182 172 169 154 161 208
304 293 278 264 245 235 241 233 232 227 244 233 254 246 215 222 235 230 222 227 232 247 245 254 247 4 314 205 220 172 141 113 100 145 114 172 249 310 160 139 120 147 99 116
303 297 267 258 247 238 245 242 239 244 267 251 268 282 263 237 236 265 256 247 228 241 221 160 148 1 15 259 17 208 211 125 102 141 184 272 324 180 148 161 209 199 138 129
307 299 262 251 249 244 242 241 243 233 268 237 243 261 243 267 209 215 236 250 271 262 167 171 165 177 169 212 132 61 73 60 126 143 150 203 223 170 134 118 235 198 155 143
320 308 278 256 247 244 239 242 240 225 263 261 261 231 230 233 181 231 202 215 227 216 197 171 154 197 144 171 168 167 95 38 147 163 184 285 261 293 62 142 229 162 165 146
306 308 283 270 254 247 239 243 245 219 240 255 246 242 238 256 271 220 266 160 214 145 186 177 218 150 184 137 167 178 157 144 169 104 112 251 28 350 167 205 128 143 140 129
285 296 285 275 253 244 244 254 239 228 231 268 242 234 233 278 292 300 268 175 131 185 140 273 137 96 133 151 158 46 172 193 160 154 187 345 340 161 178 144 143 149 145 141
293 295 290 274 261 244 259 221 196 191 236 252 243 231 230 359 334 307 277 9 119 90 92 149 180 124 125 134 162 118 112 80 84 82 6 20 54 107 129 143 137 144 142 143
291 297 286 278 263 248 263 218 221 208 222 248 232 246 245 284 2 309 209 87 151 187 46 43 47 117 337 134 137 104 53 93 116 63 95 79 78 101 115 116 123 126 128 130
293 293 278 291 275 257 214 208 223 214 203 210 268 348 92 49 62 110 129 95 81 134 95 37 60 302 84 10 67 53 9 137 131 191 209 127 144 122 123 121 120 127 138 132
295 285 290 275 278 281 211 186 230 221 164 242 81 29 22 52 45 65 75 97 58 87 102 104 5 7 136 88 83 0 94 124 162 180 173 172 153 152 149 142 137 139 146 146
289 278 276 262 289 191 177 188 189 166 181 265 79 96 2 72 27 31 44 50 62 53 85 63 102 348 14 72 86 147 110 85 93 128 137 129 146 150 146 145 139 137 132 134
286 264 257 282 256 213 193 162 154 162 192 223 116 332 105 195 34 3 15 24 35 39 64 54 55 20 26 66 119 102 96 100 120 159 192 174 170 158 153 151 146 148 196 258
278 242 278 181 193 144 137 177 177 182 210 163 122 141 173 155 75 88 41 49 57 19 59 47 48 357 50 92 76 86 99 90 115 136 171 171 166 161 161 167 179 220 241 251
210 285 190 154 151 128 137 132 156 189 225 201 101 130 132 139 108 69 93 39 80 69 341 11 55 30 355 32 64 125 179 197 151 137 143 159 170 182 193 205 212 217 220 229
230 182 145 137 146 132 78 118 166 205 3 167 132 142 133 156 111 132 37 121 20 75 308 77 69 59 307 75 69 58 47 45 210 215 219 212 226 221 211 211 210 208 222 252
176 137 137 119 99 92 121 201 337 202 201 159 138 147 125 128 128 104 22 97 22 95 43 75 96 223 145 103 63 41 42 37 51 129 227 234 227 223 219 221 223 232 245 258
132 132 116 134 139 63 169 190 240 193 168 162 152 117 120 108 87 74 82 70 98 89 43 156 213 165 167 125 74 56 59 53 34 22 255 238 236 233 238 246 247 246 257 275
104 144 139 175 186 229 196 186 172 166 155 146 132 92 103 96 67 113 84 42 86 55 63 230 237 176 149 125 88 53 34 16 334 298 284 275 267 257 253 256 259 263 272 282
115 147 151 188 216 250 230 161 134 129 148 138 109 78 86 34 86 31 108 55 99 188 208 219 177 158 151 149 100 58 1 336 323 314 302 294 274 263 262 264 267 270 274 277
129 141 111 138 147 23 129 152 136 148 142 126 82 94 73 58 122 81 157 131 194 218 207 168 158 164 167 160 193 295 307 307 305 300 298 297 288 285 280 279 277 274 272 271
48 72 166 203 184 157 150 160 156 152 146 106 106 77 73 93 56 125 168 191 213 187 161 164 171 175 206 274 294 304 308 310 308 299 294 294 295 294 295 293 286 279 280 271